User: anonymous   Login
Location: Starry Hill Observatory
(46.8582°N, 122.3590°W)
Time: 01:18:53
(UTC-07:00)
Language:

Cosmos 1300 Rocket - Orbit

View from above orbital plane
View from above orbital plane
View from above satellite
View from above satellite

Ground track
Ground track

The orbit data is extracted from the following two-line orbital elements,

1 12786U 81082B   18146.10637106  .00000072  00000-0  56580-5 0  9995
2 12786  82.4891   4.5064 0016998 198.2462 161.8146 14.84728212985695
Epoch (UTC): 26 May 2018 02:33:10
Eccentricity: 0.0016998
inclination: 82.4891°
perigee height: 602 km
apogee height: 626 km
right ascension of ascending node: 4.5064°
argument of perigee: 198.2462°
revolutions per day: 14.84728212
mean anomaly at epoch: 161.8146°
orbit number at epoch: 98569

The dashed part of the orbit path shows where the satellite is in the earth's shadow,  

DLR